Wind_Speed
9 8 6 2 2 3 2 4 2 6 3 3 8 3 5 3 1 3 19 13 24 23 23 24 23 22 20 20 22 21 21 21 22 22 21 20 19 20 17 19 19 18 18 18 17 15 13 13 12
10 7 3 1 3 4 3 5 6 4 4 7 4 7 4 3 5 10 13 24 26 27 25 23 23 22 21 20 20 19 18 19 19 20 18 18 18 17 16 16 16 17 16 16 14 12 12 11 11
5 2 1 2 3 3 2 0 8 9 11 5 4 4 4 4 11 16 15 30 27 27 26 23 22 20 18 17 18 17 17 17 18 17 16 16 15 14 14 13 12 14 14 14 12 11 11 9 9
2 2 1 3 2 3 6 7 8 8 3 4 10 7 5 7 18 14 33 30 29 26 26 22 21 19 18 17 16 15 15 15 16 15 14 14 13 12 11 11 10 10 11 11 11 10 10 8 7
2 1 4 3 3 3 9 10 6 7 5 7 3 5 6 9 16 33 32 31 31 27 26 23 22 20 18 16 15 14 14 13 13 13 12 12 11 10 10 9 8 7 8 9 8 8 8 8 7
4 2 4 3 6 4 5 8 12 5 10 10 10 8 3 22 29 29 32 32 30 29 26 24 21 19 18 16 14 13 13 12 12 12 11 10 9 8 7 7 6 5 5 5 6 6 5 6 6
3 1 2 2 4 4 6 7 7 11 11 7 13 5 3 11 21 25 27 31 31 28 27 25 23 20 17 15 14 13 13 12 11 10 8 8 7 6 6 6 6 5 5 5 6 5 5 5 6
3 2 2 3 2 3 7 8 10 15 9 14 7 4 6 13 22 23 25 27 27 27 26 25 23 20 19 16 15 13 12 11 9 9 8 7 7 6 6 6 6 7 6 6 5 5 5 5 5
4 4 4 4 1 4 5 5 10 2 16 6 10 7 15 26 24 24 21 19 21 23 25 24 23 21 19 18 15 13 11 10 10 9 8 7 7 6 6 7 8 9 9 8 8 7 7 7 7
2 4 3 1 4 6 4 11 5 6 16 4 10 17 29 29 26 25 22 22 21 23 27 25 23 22 20 18 16 14 13 12 12 10 9 8 7 6 6 6 8 8 10 11 10 10 9 9 9
5 5 5 3 3 5 8 11 1 12 10 11 22 20 23 26 21 21 21 26 30 29 26 26 24 22 20 18 16 15 14 14 13 11 10 8 7 8 10 10 9 8 9 11 11 11 10 10 10
3 8 3 10 10 8 6 5 2 12 5 16 19 24 21 19 18 19 20 23 25 29 28 27 25 23 21 18 17 16 15 15 14 12 10 10 10 9 10 11 10 8 9 11 12 14 11 9 10
2 4 5 9 14 8 9 15 7 10 10 15 17 21 20 19 23 22 23 23 25 28 28 28 26 25 21 19 17 16 15 14 12 12 11 12 10 11 13 12 12 12 11 13 15 16 12 11 12
11 11 9 9 15 8 12 6 9 9 15 15 20 20 19 19 22 19 20 22 27 29 30 29 28 26 23 19 18 18 16 14 12 13 13 13 13 12 13 13 15 14 14 12 10 8 7 11 10
6 7 8 7 7 3 11 3 4 9 16 17 15 18 19 19 24 23 29 28 35 34 32 32 30 27 25 20 16 15 15 14 16 17 15 16 16 14 11 10 12 15 15 15 12 15 12 10 9
4 3 3 8 8 6 5 4 3 8 16 16 10 13 17 17 22 25 28 31 31 32 34 33 31 29 26 21 15 12 13 14 15 14 18 18 14 13 10 10 11 12 10 11 12 13 13 14 11
3 2 4 2 8 6 3 3 7 7 15 15 13 10 9 12 14 23 28 32 34 36 35 35 33 30 28 21 19 16 15 14 9 9 17 18 14 10 9 6 8 8 8 8 13 12 10 9 8
4 5 5 6 7 5 6 7 6 10 18 17 14 12 9 9 11 23 29 30 36 36 36 34 34 31 29 23 20 18 18 14 10 10 10 14 18 11 7 7 8 6 6 4 9 11 11 9 8
5 7 10 5 7 6 11 4 10 11 17 17 15 13 12 12 14 21 31 31 32 31 34 35 34 30 32 26 19 18 19 14 10 12 11 12 12 11 9 7 5 3 1 3 7 8 5 5 5
8 8 8 7 8 6 6 6 5 13 20 23 19 17 15 14 6 13 23 27 31 37 36 35 37 33 31 26 23 20 18 12 10 11 12 8 7 8 6 5 3 2 1 5 7 6 3 2 2
5 5 5 4 5 4 4 4 6 8 4 11 15 17 16 15 10 11 20 28 29 30 38 41 38 32 29 27 23 16 15 12 10 13 7 3 7 5 5 3 2 3 3 4 5 4 1 1 2
5 6 3 13 5 4 7 4 6 7 10 13 14 13 13 9 10 11 18 24 29 37 37 40 38 35 31 28 25 23 18 15 11 12 15 7 5 5 4 4 2 3 2 1 1 1 2 3 3
9 5 3 5 4 4 2 2 6 8 9 14 16 17 17 11 14 14 19 30 36 30 37 41 38 36 34 31 27 25 23 19 12 8 6 6 6 6 4 5 5 4 3 2 1 1 1 1 3
3 3 6 4 2 3 2 4 6 5 14 12 14 18 18 13 13 15 26 28 29 28 28 34 38 38 37 33 31 27 28 22 16 14 14 9 8 8 6 6 8 6 4 5 5 5 5 5 3
6 7 4 5 5 4 1 3 8 4 8 13 20 21 19 15 13 12 15 20 23 27 29 32 37 37 38 36 34 30 28 24 21 18 14 8 7 10 9 10 9 8 6 6 7 6 5 5 4
4 7 5 3 1 5 3 4 5 6 9 9 13 22 19 16 12 14 13 24 27 29 31 32 36 34 39 39 38 34 31 28 25 21 17 11 12 11 10 12 11 7 8 9 8 7 7 5 5
4 3 4 7 3 3 3 6 8 5 11 5 8 12 17 18 15 15 14 25 27 29 32 36 36 37 38 40 39 37 33 30 28 25 21 18 14 13 13 16 15 13 12 10 9 8 7 6 7
2 5 3 3 2 1 4 4 4 5 2 6 5 10 14 17 16 12 13 23 27 32 34 34 35 40 43 42 41 40 38 35 32 26 23 22 18 16 15 15 14 15 13 12 13 12 11 9 7
6 4 6 5 4 6 2 6 7 9 9 3 7 7 11 17 18 16 14 22 26 28 29 32 31 35 33 39 41 40 40 38 37 33 27 21 19 16 15 15 11 14 16 19 18 17 15 11 9
6 4 3 5 4 1 4 6 4 7 8 2 3 4 8 11 16 15 14 20 22 26 28 32 32 33 41 43 38 41 42 39 36 34 33 27 20 20 18 19 16 17 19 21 19 17 15 14 11
Wind_Direction
176 168 183 253 25 62 44 22 2 117 133 145 137 148 152 51 164 182 148 149 148 147 147 143 141 136 134 131 128 126 122 122 122 122 124 122 121 116 117 115 117 117 119 120 122 124 121 118 116
170 159 195 59 73 50 31 133 149 175 142 94 94 125 74 87 72 114 131 157 150 149 148 150 147 145 140 136 131 127 125 125 123 120 120 123 119 120 120 120 121 120 120 123 127 130 126 122 123
163 217 309 88 78 94 134 33 124 114 123 131 109 89 77 104 113 144 152 155 150 150 149 151 151 146 142 140 136 129 128 129 123 122 122 117 118 120 123 124 129 127 127 128 132 136 132 127 127
112 29 71 60 343 14 122 117 141 143 177 76 115 73 67 142 145 161 151 154 152 151 153 152 151 149 148 146 143 139 132 131 128 126 121 119 120 124 124 125 127 127 133 137 145 146 139 134 132
51 137 44 21 344 101 132 132 190 142 136 104 89 97 92 139 141 144 153 158 153 153 152 156 157 156 155 151 149 145 141 142 138 134 135 131 131 133 132 133 136 137 144 144 150 148 146 147 145
17 63 51 44 11 102 121 168 154 126 117 99 102 105 96 138 137 150 155 159 155 154 160 157 162 161 158 160 159 155 153 153 151 150 150 146 152 151 147 149 152 159 171 165 172 168 170 161 165
104 37 107 350 325 200 166 193 160 139 121 129 136 72 80 140 147 147 155 159 159 160 163 165 168 167 168 167 164 166 165 165 162 163 164 169 174 176 171 171 179 190 206 204 197 194 187 191 197
120 96 147 135 22 289 156 169 131 141 151 134 141 143 164 164 148 147 153 156 160 164 168 171 172 172 174 172 173 172 176 175 175 181 185 182 182 193 195 193 199 214 219 216 213 210 214 209 201
160 60 4 2 27 312 285 155 155 127 138 177 181 138 142 143 139 137 140 151 162 169 174 174 174 176 176 175 175 179 182 179 187 188 189 188 192 193 194 206 211 217 223 222 227 233 226 223 228
93 122 190 69 352 333 215 157 125 132 155 134 107 110 137 145 151 149 157 163 171 178 180 178 180 180 178 178 176 184 187 191 197 195 195 203 202 198 202 211 223 220 227 232 232 236 229 226 228
250 161 99 60 75 322 332 150 178 151 177 165 148 144 151 155 164 162 169 173 177 181 179 183 184 184 183 183 183 187 191 192 195 187 189 195 203 217 222 220 221 223 234 234 233 235 230 232 237
345 309 60 72 352 257 224 345 251 184 200 162 157 153 153 165 172 174 170 177 180 183 185 187 189 189 189 188 189 188 193 195 193 192 200 211 222 230 226 230 229 233 234 236 236 238 240 249 240
268 248 204 178 188 235 242 233 260 215 148 136 149 155 162 174 180 182 181 176 181 184 189 191 192 193 190 194 192 192 197 202 205 212 214 226 238 250 254 245 241 246 251 251 241 242 247 248 244
202 195 197 202 201 214 199 219 199 199 154 148 152 163 170 179 185 175 178 177 184 189 190 190 195 194 190 189 193 196 202 210 215 226 228 235 242 258 263 255 247 252 252 260 273 259 246 254 248
234 145 157 255 177 154 131 332 142 157 156 167 160 164 177 187 186 179 185 184 190 192 190 191 195 196 198 191 195 208 217 223 233 239 240 240 242 248 257 249 254 243 248 250 245 250 261 254 251
153 59 170 214 164 134 121 231 255 162 162 173 182 170 173 196 190 193 189 188 195 193 196 196 198 200 203 197 195 206 206 226 246 239 235 238 240 244 253 259 263 269 266 267 253 253 261 235 255
27 257 252 251 195 126 127 173 229 199 172 177 187 190 182 177 190 190 195 187 191 198 198 199 201 205 203 201 200 198 200 210 227 252 238 234 227 243 232 268 290 300 283 268 236 232 220 238 246
277 282 265 231 206 140 166 238 180 203 179 183 187 196 199 204 206 187 186 186 188 196 199 198 202 206 199 193 197 208 212 221 243 262 238 219 222 241 245 263 290 308 301 270 205 206 214 238 248
243 257 254 260 181 142 193 211 185 199 188 185 191 200 206 210 218 187 184 181 182 188 191 196 197 199 189 194 202 198 205 220 249 228 216 222 229 241 250 256 270 306 330 118 151 172 207 227 273
224 244 247 288 151 165 148 219 205 196 195 188 186 197 207 214 203 167 175 176 180 188 191 193 195 192 196 201 194 193 206 221 230 217 224 225 215 224 249 245 266 275 69 119 140 163 178 215 261
281 189 253 178 136 354 60 311 194 194 208 194 203 200 205 202 191 171 171 179 182 187 192 196 199 198 197 196 194 197 206 215 212 214 206 237 236 232 220 219 263 163 105 138 142 143 129 286 269
311 227 287 132 113 207 143 262 236 168 186 196 192 197 205 187 189 174 174 181 185 196 196 198 199 197 198 197 198 203 209 219 223 233 234 243 206 234 208 181 192 166 121 91 52 339 332 327 313
249 318 45 140 124 120 218 39 264 137 180 203 197 200 207 190 182 181 182 186 196 191 196 200 202 200 200 201 205 206 215 226 236 235 205 208 221 203 205 194 188 189 191 135 63 357 36 36 347
272 295 49 69 98 36 298 135 284 178 208 198 196 203 203 188 186 187 192 187 191 192 191 198 203 204 204 204 208 211 211 217 228 232 222 246 218 224 225 197 196 192 176 189 190 179 170 152 107
73 46 350 359 13 212 307 16 246 270 245 200 185 194 198 185 185 182 177 185 188 187 189 194 201 202 205 206 211 213 215 218 227 233 238 236 224 216 216 194 194 200 198 185 181 185 167 164 152
154 149 148 224 212 271 51 233 282 299 271 200 191 189 181 181 176 186 183 187 189 191 191 192 199 203 206 209 214 217 219 220 224 227 232 242 232 215 206 192 191 194 188 192 192 177 164 139 170
181 167 180 104 14 35 276 306 315 340 28 63 157 154 176 185 184 188 185 193 192 193 194 196 201 206 208 213 217 221 222 221 221 224 227 236 238 219 205 193 196 198 199 197 191 187 182 165 161
118 159 62 16 156 227 300 284 239 322 13 100 136 176 183 186 193 187 198 196 195 196 201 199 203 206 213 215 219 223 225 226 228 228 224 227 233 218 205 208 208 198 190 187 196 198 197 189 172
10 8 54 125 127 160 191 266 217 215 235 131 152 177 185 189 194 193 199 200 199 198 198 204 204 208 211 216 220 225 228 230 231 231 229 227 226 212 200 205 198 207 205 203 202 201 198 194 186
111 39 123 118 243 280 155 266 269 212 272 294 247 140 174 199 197 193 194 188 194 194 196 203 205 207 215 220 219 225 229 232 233 231 233 226 218 208 209 194 217 223 204 200 198 202 199 204 201
Height
763 764 765 766 785 785 785 783 762 772 770 760 763 769 775 776 783 804 785 789 792 797 801 803 805 807 810 812 813 814 815 817 818 819 821 821 822 822 824 824 824 827 828 830 830 832 833 834 834
763 765 765 770 788 802 792 769 774 764 759 758 762 766 773 786 779 785 789 792 794 798 802 806 807 809 811 814 815 816 817 819 820 821 823 824 823 824 825 826 827 828 831 832 833 834 834 835 836
762 763 768 779 792 796 795 772 767 762 757 760 766 764 773 786 783 786 788 793 797 800 804 807 809 812 814 816 817 818 819 821 821 824 826 826 826 827 827 828 829 830 832 834 836 836 836 836 836
761 764 767 785 787 770 767 767 764 765 759 756 763 778 774 777 781 785 790 795 798 803 806 808 811 814 815 817 819 821 821 823 824 826 828 828 828 830 830 831 832 833 834 836 837 837 838 838 838
762 766 784 786 778 770 759 758 765 768 764 764 764 782 785 784 782 787 792 796 799 804 808 811 813 815 817 819 822 823 823 824 825 827 829 830 831 832 832 833 833 834 836 838 838 838 839 839 839
769 769 793 801 785 769 763 757 760 765 765 768 774 779 788 785 786 790 794 797 801 804 809 812 814 816 818 821 822 823 823 824 826 828 829 830 832 833 834 834 834 836 837 839 839 839 839 840 839
770 779 793 792 792 777 769 758 763 767 771 774 769 787 791 789 790 793 796 800 803 806 808 812 814 816 819 821 822 823 825 826 827 829 830 831 833 834 835 834 835 836 837 838 839 839 839 839 839
770 779 785 787 792 784 760 761 757 765 775 767 770 791 799 790 794 796 800 804 806 808 810 812 814 816 819 821 823 825 826 827 829 830 831 832 833 834 835 835 836 837 838 838 840 839 839 839 839
764 791 795 786 786 781 763 765 759 758 767 767 768 774 780 791 796 799 803 807 808 810 811 813 815 817 820 822 824 825 826 827 828 829 831 832 833 833 834 835 836 837 838 838 838 838 838 838 839
770 790 784 773 778 776 761 762 763 767 772 774 773 777 786 792 796 798 802 806 809 810 811 813 816 817 819 821 823 825 826 827 828 829 830 830 831 832 834 835 836 836 837 837 837 837 837 837 838
764 775 768 770 775 773 768 761 757 772 781 773 775 780 786 792 797 798 801 802 803 808 811 813 815 817 819 821 823 824 825 827 827 828 828 829 831 832 833 834 834 835 836 836 836 836 836 835 836
774 760 768 773 776 764 770 769 773 766 766 763 768 775 783 790 794 796 801 803 805 807 810 812 815 817 819 821 822 823 824 826 826 827 828 829 830 831 832 833 833 834 834 835 835 836 836 835 836
780 763 766 766 769 765 765 769 775 766 759 763 772 779 783 787 790 794 797 801 804 807 809 811 814 816 818 820 822 823 824 825 826 827 828 829 830 830 831 831 832 832 832 832 833 833 834 835 835
755 760 765 763 772 761 767 769 771 761 759 765 774 779 783 785 788 794 800 801 803 805 807 810 813 815 817 818 820 822 824 825 826 827 827 828 829 829 830 830 829 829 829 829 830 831 832 833 833
748 764 763 760 763 761 761 776 773 759 759 765 773 778 781 782 787 789 792 796 798 801 805 807 810 814 816 817 820 822 823 824 825 825 827 828 828 828 828 828 828 828 828 827 827 828 830 831 831
763 763 790 756 760 758 765 794 770 761 763 769 772 774 778 781 782 786 789 792 797 800 802 806 809 811 814 817 819 821 822 823 822 823 824 825 827 828 828 828 827 826 825 823 824 824 824 827 828
776 789 780 769 751 760 768 787 769 764 764 770 772 772 773 778 781 782 786 788 792 795 799 802 806 809 812 816 818 819 820 821 821 822 822 824 826 827 827 827 825 824 822 821 820 821 823 826 827
789 785 768 773 757 759 774 778 767 766 764 767 770 771 773 774 775 778 782 785 788 793 796 799 804 808 812 815 816 818 818 820 821 821 821 822 825 825 825 825 824 822 820 818 819 820 823 826 828
772 774 776 753 745 758 768 771 767 767 765 768 770 771 772 772 769 775 779 784 788 792 795 797 802 805 810 812 813 814 816 819 819 820 820 822 823 825 825 824 824 824 822 820 821 823 826 828 829
770 774 768 749 747 756 764 769 762 764 758 756 763 767 769 770 772 773 778 782 785 787 792 797 800 804 807 809 811 813 815 818 818 819 820 821 822 823 825 826 826 826 825 824 824 826 827 828 829
764 768 758 758 760 757 764 775 768 760 761 761 761 758 761 765 769 771 774 778 783 786 788 793 797 801 804 807 810 813 815 816 817 818 819 820 821 824 825 827 827 828 828 828 828 829 829 829 829
772 742 741 758 774 794 763 806 769 761 766 760 761 759 759 761 763 767 771 777 779 780 785 790 793 798 801 805 808 811 813 813 816 818 819 821 822 824 825 827 829 830 830 831 831 831 830 830 830
765 737 739 755 772 778 776 794 770 759 769 760 754 752 751 754 757 763 765 768 771 778 781 786 791 795 799 803 806 809 810 811 815 817 819 820 822 824 825 826 829 830 830 831 831 831 831 831 831
736 745 760 774 783 805 778 788 775 767 745 746 745 745 745 750 752 756 760 765 770 775 780 784 788 792 797 800 803 805 807 810 814 815 817 818 821 824 825 826 828 830 829 829 829 829 829 829 829
750 781 814 807 819 816 787 790 770 743 731 724 729 733 736 742 747 753 757 763 768 771 776 780 785 788 792 797 800 801 805 809 811 813 814 817 820 822 824 826 827 829 829 829 829 829 829 829 828
752 774 813 814 824 813 790 793 765 731 718 710 715 716 727 738 744 748 752 757 762 767 771 776 781 785 788 792 795 799 802 805 808 810 814 816 816 819 820 822 826 826 827 828 829 829 828 828 829
756 775 762 807 814 811 797 766 740 729 721 716 719 724 729 733 738 743 747 752 758 763 766 770 775 780 784 787 792 796 799 802 803 806 809 811 814 816 817 818 819 818 821 825 829 830 829 828 828
738 749 781 802 806 805 800 784 778 743 729 723 724 725 726 726 731 740 744 748 752 756 762 767 771 775 777 783 787 791 794 798 801 803 805 809 812 812 815 815 813 813 818 822 824 825 828 829 829
762 768 777 791 803 818 820 799 747 738 729 717 720 721 724 724 728 733 738 744 747 754 760 763 768 772 777 780 783 787 789 792 796 800 803 806 809 811 813 813 816 813 812 815 818 822 825 828 827
748 763 775 801 793 809 806 791 726 728 725 722 717 717 719 721 722 727 732 739 744 749 755 758 762 767 769 773 779 782 784 788 792 796 799 803 805 807 809 810 809 807 807 812 817 822 826 827 827